FW0929 Weather Reports


Display with metric or nautical units.
time (UTC)temp
F
wind
direction
speed
MPH
gust
MPH
rain 1hr
in
rain 24hr
in
rain mn
in
humidity
%
barometer
mb
20180526090051 67 220 4.0 10.0 0.00 0.00 0.00 87 1005.9
20180526084552 67 244 3.0 10.0 0.00 0.00 0.00 89 1005.7
20180526083050 67 240 3.0 7.0 0.00 0.00 0.00 91 1005.7
20180526081547 67 221 0.0 6.0 0.00 0.00 0.00 91 1005.5
20180526080048 67 234 1.0 4.0 0.00 0.00 0.00 91 1005.5
20180526074547 67 207 1.0 5.0 0.00 0.00 0.00 90 1005.6
20180526073044 68 207 1.0 3.0 0.00 0.00 0.00 89 1005.5
20180526071543 68 227 2.0 7.0 0.00 0.00 0.00 89 1005.6
20180526070044 68 237 3.0 7.0 0.00 0.00 0.00 89 1005.5
20180526064542 68 97 2.0 6.0 0.00 0.00 0.00 88 1004.9
20180526063042 69 92 2.0 7.0 0.00 0.00 0.00 88 1005.1
20180526061533 69 129 1.0 7.0 0.00 0.00 0.00 87 1005.2
20180526060031 69 129 1.0 4.0 0.00 0.00 0.00 85 1005.6
20180526054531 70 96 1.0 5.0 0.00 0.00 0.00 84 1005.8
20180526053030 70 173 2.0 9.0 0.00 0.00 0.00 84 1005.8
20180526051528 70 146 1.0 10.0 0.00 0.00 0.00 82 1006.1
20180526050027 71 257 3.0 9.0 0.00 0.00 0.00 80 1006.2
20180526043025 72 144 0.0 3.0 0.00 0.00 0.00 77 1006.6
20180526041524 72 203 2.0 5.0 0.00 0.00 0.00 75 1006.6
20180526040028 72 226 1.0 5.0 0.00 0.00 0.00 73 1006.7
20180526034525 73 248 0.0 3.0 0.00 0.00 0.00 71 1006.9
20180526033021 73 249 1.0 3.0 0.00 0.00 0.00 70 1007.2
20180526031523 74 249 0.0 2.0 0.00 0.00 0.00 70 1007.3
20180526030019 74 249 2.0 4.0 0.00 0.00 0.00 70 1007.3
20180526024520 74 260 2.0 4.0 0.00 0.00 0.00 69 1007.2
20180526023022 74 262 1.0 3.0 0.00 0.00 0.00 70 1007.1
20180526021522 74 262 1.0 3.0 0.00 0.00 0.00 70 1007.1
20180526020018 75 262 0.0 0.0 0.00 0.00 0.00 71 1007.0
20180526014520 75 262 0.0 0.0 0.00 0.00 0.00 70 1006.8
20180526013017 76 262 0.0 0.0 0.00 0.00 0.00 69 1006.8
20180526011517 76 262 0.0 0.0 0.00 0.00 0.00 68 1006.9
20180526010019 77 262 0.0 0.0 0.00 0.00 0.00 68 1007.0
20180526004517 77 262 0.0 2.0 0.00 0.00 0.00 67 1007.0
20180526003015 77 262 1.0 5.0 0.00 0.00 0.00 66 1006.8
20180526001519 77 252 2.0 10.0 0.00 0.00 0.00 66 1006.8
20180526000018 78 254 3.0 8.0 0.00 0.00 0.00 63 1006.6
20180525234513 78 249 3.0 7.0 0.00 0.00 0.00 62 1006.5
20180525233013 79 236 4.0 9.0 0.00 0.00 0.00 60 1006.1
20180525231512 80 228 4.0 9.0 0.00 0.00 0.00 59 1005.8
20180525230014 80 259 2.0 13.0 0.00 0.00 0.00 60 1005.8
20180525224509 81 200 4.0 12.0 0.00 0.00 0.00 58 1006.2
20180525223012 82 267 4.0 15.0 0.00 0.00 0.00 56 1006.6
20180525221506 85 28 1.0 10.0 0.00 0.00 0.00 45 1006.5
20180525220007 85 96 3.0 9.0 0.00 0.00 0.00 45 1006.7
20180525214505 86 176 2.0 8.0 0.00 0.00 0.00 44 1007.0
20180525212959 85 37 3.0 9.0 0.00 0.00 0.00 44 1007.3
20180525211456 86 128 1.0 8.0 0.00 0.00 0.00 43 1007.7
20180525205956 86 211 3.0 7.0 0.00 0.00 0.00 42 1007.8
20180525204454 87 84 1.0 9.0 0.00 0.00 0.00 44 1008.0
20180525202951 89 211 4.0 8.0 0.00 0.00 0.00 39 1008.2
20180525201449 89 251 2.0 9.0 0.00 0.00 0.00 40 1008.4
20180525195947 90 214 5.0 12.0 0.00 0.00 0.00 40 1008.7
20180525194444 90 196 1.0 9.0 0.00 0.00 0.00 39 1008.8
20180525192943 90 219 2.0 5.0 0.00 0.00 0.00 39 1009.0
20180525191441 88 209 4.0 10.0 0.00 0.00 0.00 42 1009.1
20180525185937 88 247 5.0 11.0 0.00 0.00 0.00 41 1009.3
20180525184436 89 256 4.0 8.0 0.00 0.00 0.00 40 1009.7
20180525182934 87 211 3.0 12.0 0.00 0.00 0.00 44 1009.8
20180525181431 88 234 5.0 14.0 0.00 0.00 0.00 42 1010.0
20180525175933 89 202 8.0 15.0 0.00 0.00 0.00 42 1010.2
20180525174427 88 261 5.0 14.0 0.00 0.00 0.00 43 1010.3
20180525172924 88 174 5.0 16.0 0.00 0.00 0.00 44 1010.8
20180525171426 88 254 2.0 12.0 0.00 0.00 0.00 47 1010.9
20180525165923 87 215 4.0 12.0 0.00 0.00 0.00 46 1011.1
20180525164419 87 216 4.0 12.0 0.00 0.00 0.00 49 1011.3
20180525162917 84 256 6.0 15.0 0.00 0.00 0.00 51 1011.5
20180525161417 85 213 5.0 18.0 0.00 0.00 0.00 53 1011.5
20180525155914 85 230 7.0 12.0 0.00 0.00 0.00 51 1011.4
20180525154411 83 251 5.0 12.0 0.00 0.00 0.00 52 1011.5
20180525152911 84 144 3.0 10.0 0.00 0.00 0.00 51 1011.6
20180525151408 83 185 2.0 11.0 0.00 0.00 0.00 53 1011.6
20180525150008 83 155 2.0 9.0 0.00 0.00 0.00 55 1011.6
20180525144402 81 135 3.0 7.0 0.00 0.00 0.00 57 1011.7
20180525142900 80 227 2.0 7.0 0.00 0.00 0.00 60 1011.9
20180525141354 79 191 1.0 8.0 0.00 0.00 0.00 61 1012.1
20180525135856 78 243 4.0 7.0 0.00 0.00 0.00 61 1012.2
20180525134350 78 175 0.0 7.0 0.00 0.00 0.00 62 1012.2
20180525132848 76 173 1.0 8.0 0.00 0.00 0.00 63 1012.3
20180525131344 75 213 2.0 5.0 0.00 0.00 0.00 64 1012.4
20180525125840 74 180 0.0 4.0 0.00 0.00 0.00 65 1012.4
20180525124336 72 140 0.0 5.0 0.00 0.00 0.00 66 1012.5
20180525122832 71 231 0.0 4.0 0.00 0.00 0.00 66 1012.4
20180525121330 69 238 1.0 6.0 0.00 0.00 0.00 67 1012.5
20180525115825 68 221 1.0 4.0 0.00 0.00 0.00 68 1012.3